Hourly Weather Bolshie Negnovichi

Today, 27 July, Tuesday

Time Temperature Precipitation Wind Pressure Humidity
00:00 +20°C° 0 mm 3 mps 748 mmHg 69%
01:00 +19°C° 0 mm 3 mps 748 mmHg 71%
02:00 +18°C° 0 mm 2 mps 748 mmHg 73%
03:00 +18°C° 0 mm 2 mps 748 mmHg 74%
04:00 +18°C° 0 mm 2 mps 748 mmHg 75%
05:00 +18°C° 0 mm 2 mps 748 mmHg 76%
06:00 +19°C° 0 mm 3 mps 748 mmHg 73%
07:00 +20°C° 0 mm 3 mps 748 mmHg 69%
08:00 +21°C° 0 mm 4 mps 748 mmHg 66%
09:00 +23°C° 0 mm 4 mps 747 mmHg 59%
10:00 +26°C° 0 mm 5 mps 747 mmHg 53%
11:00 +28°C° 0 mm 5 mps 747 mmHg 46%
12:00 +29°C° 0 mm 5 mps 747 mmHg 43%
13:00 +30°C° 0 mm 5 mps 746 mmHg 39%
14:00 +32°C° 0 mm 5 mps 746 mmHg 36%
15:00 +32°C° 0 mm 5 mps 745 mmHg 39%
16:00 +30°C° 0 mm 4 mps 745 mmHg 43%
17:00 +29°C° 0 mm 3 mps 744 mmHg 47%
18:00 +27°C° 0.1 mm 3 mps 744 mmHg 56%
19:00 +25°C° 0.1 mm 3 mps 744 mmHg 66%
20:00 +22°C° 0.1 mm 3 mps 744 mmHg 76%
21:00 +21°C° 0.2 mm 3 mps 744 mmHg 80%
22:00 +20°C° 0.2 mm 3 mps 744 mmHg 85%
23:00 +19°C° 0.2 mm 3 mps 744 mmHg 89%

Tomorrow, 28 July, Wednesday

Time Temperature Precipitation Wind Pressure Humidity
00:00 +19°C° 0.2 mm 2 mps 744 mmHg 92%
01:00 +19°C° 0.2 mm 2 mps 743 mmHg 94%
02:00 +19°C° 0.2 mm 2 mps 743 mmHg 97%
03:00 +19°C° 0.1 mm 2 mps 743 mmHg 97%
04:00 +19°C° 0.1 mm 2 mps 743 mmHg 98%
05:00 +19°C° 0.1 mm 2 mps 743 mmHg 98%
06:00 +20°C° 0 mm 2 mps 743 mmHg 95%
07:00 +20°C° 0 mm 2 mps 743 mmHg 93%
08:00 +21°C° 0 mm 2 mps 743 mmHg 90%
09:00 +24°C° 0 mm 3 mps 743 mmHg 79%
10:00 +26°C° 0 mm 4 mps 743 mmHg 69%
11:00 +28°C° 0 mm 4 mps 743 mmHg 58%
12:00 +28°C° 0 mm 4 mps 743 mmHg 53%
13:00 +29°C° 0 mm 5 mps 742 mmHg 48%
14:00 +30°C° 0 mm 5 mps 742 mmHg 43%
15:00 +30°C° 0 mm 5 mps 742 mmHg 43%
16:00 +30°C° 0 mm 4 mps 742 mmHg 44%
17:00 +30°C° 0 mm 4 mps 742 mmHg 45%
18:00 +28°C° 0 mm 4 mps 742 mmHg 53%
19:00 +26°C° 0 mm 3 mps 742 mmHg 62%
20:00 +24°C° 0 mm 3 mps 742 mmHg 70%
21:00 +23°C° 0 mm 2 mps 742 mmHg 73%
22:00 +21°C° 0 mm 2 mps 742 mmHg 77%
23:00 +20°C° 0 mm 2 mps 742 mmHg 80%

Day after tomorrow, 29 July, Thursday

Time Temperature Precipitation Wind Pressure Humidity
00:00 +21°C° 0 mm 1 mps 742 mmHg 82%
01:00 +20°C° 0 mm 1 mps 742 mmHg 83%
02:00 +20°C° 0 mm 1 mps 742 mmHg 85%
03:00 +20°C° 0 mm 1 mps 741 mmHg 85%
04:00 +20°C° 0 mm 1 mps 741 mmHg 85%
05:00 +20°C° 0 mm 1 mps 741 mmHg 85%
06:00 +19°C° 0.7 mm 2 mps 741 mmHg 86%
07:00 +20°C° 0.7 mm 3 mps 741 mmHg 88%
08:00 +20°C° 0.7 mm 3 mps 742 mmHg 90%
09:00 +21°C° 0.3 mm 3 mps 742 mmHg 86%
10:00 +21°C° 0.3 mm 2 mps 742 mmHg 83%
11:00 +23°C° 0.3 mm 1 mps 742 mmHg 79%
12:00 +24°C° 0.1 mm 1 mps 741 mmHg 71%
13:00 +26°C° 0.1 mm 1 mps 741 mmHg 63%
14:00 +27°C° 0.1 mm 2 mps 741 mmHg 56%
15:00 +27°C° 0.1 mm 2 mps 741 mmHg 57%
16:00 +27°C° 0.1 mm 3 mps 741 mmHg 58%
17:00 +27°C° 0.1 mm 3 mps 741 mmHg 59%
18:00 +25°C° 0.3 mm 3 mps 741 mmHg 69%
19:00 +22°C° 0.3 mm 3 mps 741 mmHg 79%
20:00 +20°C° 0.3 mm 2 mps 741 mmHg 89%
21:00 +19°C° 0 mm 2 mps 741 mmHg 90%
22:00 +19°C° 0 mm 2 mps 741 mmHg 92%
23:00 +18°C° 0 mm 2 mps 741 mmHg 93%

30 July, Friday

Time Temperature Precipitation Wind Pressure Humidity
00:00 +18°C° 0 mm 2 mps 741 mmHg 93%
01:00 +17°C° 0 mm 2 mps 741 mmHg 93%
02:00 +17°C° 0 mm 2 mps 741 mmHg 93%
03:00 +17°C° 0 mm 2 mps 741 mmHg 92%
04:00 +17°C° 0 mm 2 mps 741 mmHg 91%
05:00 +17°C° 0 mm 2 mps 741 mmHg 90%
06:00 +19°C° 0 mm 3 mps 741 mmHg 82%
07:00 +20°C° 0 mm 4 mps 741 mmHg 73%
08:00 +22°C° 0 mm 4 mps 741 mmHg 65%
09:00 +23°C° 0 mm 5 mps 741 mmHg 57%
10:00 +26°C° 0 mm 5 mps 741 mmHg 49%
11:00 +27°C° 0 mm 6 mps 741 mmHg 41%
12:00 +27°C° 0 mm 6 mps 741 mmHg 42%
13:00 +27°C° 0 mm 6 mps 741 mmHg 43%
14:00 +27°C° 0 mm 5 mps 741 mmHg 43%
15:00 +27°C° 0 mm 5 mps 741 mmHg 47%
16:00 +26°C° 0 mm 4 mps 740 mmHg 50%
17:00 +26°C° 0 mm 4 mps 740 mmHg 54%
18:00 +25°C° 0 mm 3 mps 740 mmHg 60%
19:00 +22°C° 0 mm 3 mps 740 mmHg 66%
20:00 +21°C° 0 mm 2 mps 739 mmHg 72%
21:00 +20°C° 0 mm 2 mps 739 mmHg 74%
22:00 +20°C° 0 mm 2 mps 739 mmHg 77%
23:00 +19°C° 0 mm 2 mps 739 mmHg 79%

31 July, Saturday

Time Temperature Precipitation Wind Pressure Humidity
00:00 +19°C° 0.1 mm 2 mps 739 mmHg 84%
01:00 +18°C° 0.1 mm 2 mps 739 mmHg 88%
02:00 +17°C° 0.1 mm 2 mps 739 mmHg 93%
03:00 +17°C° 0 mm 2 mps 739 mmHg 93%
04:00 +17°C° 0 mm 2 mps 739 mmHg 94%
05:00 +16°C° 0 mm 2 mps 739 mmHg 94%
06:00 +18°C° 0 mm 2 mps 739 mmHg 85%
07:00 +20°C° 0 mm 2 mps 739 mmHg 75%
08:00 +23°C° 0 mm 2 mps 740 mmHg 66%
09:00 +24°C° 0 mm 2 mps 740 mmHg 58%
10:00 +26°C° 0 mm 2 mps 740 mmHg 51%
11:00 +27°C° 0 mm 3 mps 740 mmHg 44%
12:00 +27°C° 0 mm 3 mps 739 mmHg 43%
13:00 +28°C° 0 mm 3 mps 739 mmHg 42%
14:00 +28°C° 0 mm 3 mps 739 mmHg 41%
15:00 +28°C° 0 mm 3 mps 739 mmHg 42%
16:00 +28°C° 0 mm 3 mps 739 mmHg 43%
17:00 +28°C° 0 mm 3 mps 738 mmHg 45%
18:00 +26°C° 0 mm 2 mps 738 mmHg 52%
19:00 +24°C° 0 mm 2 mps 738 mmHg 59%
20:00 +22°C° 0 mm 1 mps 738 mmHg 67%
21:00 +21°C° 0 mm 1 mps 738 mmHg 69%
22:00 +21°C° 0 mm 1 mps 738 mmHg 72%
23:00 +20°C° 0 mm 1 mps 738 mmHg 74%

1 August, Sunday

Time Temperature Precipitation Wind Pressure Humidity
00:00 +19°C° 0 mm 1 mps 738 mmHg 76%
01:00 +19°C° 0 mm 1 mps 738 mmHg 78%
02:00 +19°C° 0 mm 1 mps 738 mmHg 80%
03:00 +17°C° 0 mm 2 mps 738 mmHg 82%
04:00 +17°C° 0 mm 2 mps 738 mmHg 84%
05:00 +17°C° 0 mm 2 mps 738 mmHg 86%
06:00 +18°C° 0 mm 3 mps 738 mmHg 81%
07:00 +20°C° 0 mm 3 mps 738 mmHg 76%
08:00 +21°C° 0 mm 3 mps 739 mmHg 71%
09:00 +22°C° 0 mm 4 mps 739 mmHg 63%
10:00 +23°C° 0 mm 4 mps 739 mmHg 55%
11:00 +25°C° 0 mm 5 mps 740 mmHg 47%
12:00 +26°C° 0 mm 5 mps 740 mmHg 45%
13:00 +26°C° 0 mm 5 mps 740 mmHg 44%
14:00 +26°C° 0 mm 6 mps 740 mmHg 42%
15:00 +26°C° 0 mm 5 mps 740 mmHg 44%
16:00 +25°C° 0 mm 5 mps 740 mmHg 46%
17:00 +25°C° 0 mm 5 mps 740 mmHg 49%
18:00 +22°C° 0 mm 4 mps 740 mmHg 54%
19:00 +21°C° 0 mm 3 mps 740 mmHg 60%
20:00 +20°C° 0 mm 2 mps 740 mmHg 66%
21:00 +19°C° 0 mm 2 mps 740 mmHg 68%
22:00 +18°C° 0 mm 2 mps 740 mmHg 71%
23:00 +17°C° 0 mm 2 mps 740 mmHg 74%
Show more

We Need Your Consent

Meteoprog and our Service Providers may store and access personal data such as cookies, device identifiers or other similar technologies on your device and process such data to personalise content and ads, as well as provide social media features and to analyse the traffic.

  • Store and/or access information on your device

    Cookies, device identifiers or other information can be stored or accessed on your device for the purposes indicated above.

  • Personalised ads and content, ad and content measurement, audience insights, and products development

    Ads and content can be personalised based on a profile. More data can be added to better personalise ads and content. Ad and content performance can be measured. Insights about the audience who saw the ads and content can be derived. Such data can be used to develop or improve user’s experience, systems and software.

By clicking ‘I Agree’ you will allow the use of indicated cookies, device identifiers, web beacons or other similar technologies. Your settings can be changed in the browser on your device.

For certain purposes, legitimate interests may be relied on, rather than consent. You can read more about this in our Privacy and Cookie Policy.